• In Hungary
  • List of Countries
  • For 7 days
  • Water Temperature
  • Satellite Maps
  • Weather Map
  • News
  • Weather Widgets
  • user-avatar
    Login

    Hourly Weather Szparki

    Today, 23 October, Monday

    Time Temperature Precipitation Wind Pressure Humidity
    00:00 +5°C° 0.2 mm 3 mps 749 mmHg 88%
    01:00 +5°C° 0 mm 3 mps 748 mmHg 89%
    02:00 +5°C° 0.2 mm 3 mps 748 mmHg 90%
    03:00 +5°C° 0.2 mm 3 mps 748 mmHg 90%
    04:00 +5°C° 0.2 mm 3 mps 748 mmHg 91%
    05:00 +5°C° 0.2 mm 3 mps 748 mmHg 91%
    06:00 +5°C° 0.2 mm 3 mps 748 mmHg 91%
    07:00 +4°C° 0 mm 3 mps 748 mmHg 90%
    08:00 +4°C° 0.3 mm 3 mps 749 mmHg 89%
    09:00 +4°C° 0.3 mm 3 mps 749 mmHg 89%
    10:00 +5°C° 0.3 mm 3 mps 749 mmHg 88%
    11:00 +5°C° 0.2 mm 3 mps 749 mmHg 87%
    12:00 +5°C° 0.2 mm 3 mps 749 mmHg 86%
    13:00 +5°C° 0.2 mm 3 mps 750 mmHg 85%
    14:00 +5°C° 0.1 mm 3 mps 750 mmHg 85%
    15:00 +5°C° 0.1 mm 3 mps 750 mmHg 85%
    16:00 +5°C° 0.1 mm 3 mps 751 mmHg 84%
    17:00 +5°C° 0 mm 3 mps 751 mmHg 84%
    18:00 +5°C° 0 mm 3 mps 752 mmHg 83%
    19:00 +4°C° 0 mm 3 mps 752 mmHg 83%
    20:00 +4°C° 0 mm 3 mps 753 mmHg 83%
    21:00 +4°C° 0 mm 3 mps 753 mmHg 83%
    22:00 +4°C° 0 mm 3 mps 754 mmHg 82%
    23:00 +3°C° 0 mm 3 mps 754 mmHg 83%

    Tomorrow, 24 October, Tuesday

    Time Temperature Precipitation Wind Pressure Humidity
    00:00 +3°C° 0 mm 3 mps 755 mmHg 83%
    01:00 +2°C° 0 mm 3 mps 755 mmHg 83%
    02:00 +2°C° 0 mm 3 mps 755 mmHg 84%
    03:00 +1°C° 0 mm 3 mps 756 mmHg 85%
    04:00 +1°C° 0 mm 3 mps 756 mmHg 86%
    05:00 +1°C° 0 mm 3 mps 757 mmHg 86%
    06:00 0°C° 0 mm 3 mps 757 mmHg 87%
    07:00 0°C° 0 mm 3 mps 758 mmHg 87%
    08:00 +1°C° 0 mm 3 mps 758 mmHg 82%
    09:00 +2°C° 0 mm 3 mps 758 mmHg 77%
    10:00 +4°C° 0 mm 3 mps 759 mmHg 72%
    11:00 +4°C° 0 mm 3 mps 759 mmHg 69%
    12:00 +5°C° 0 mm 3 mps 759 mmHg 65%
    13:00 +7°C° 0 mm 3 mps 759 mmHg 62%
    14:00 +6°C° 0 mm 2 mps 759 mmHg 65%
    15:00 +6°C° 0 mm 2 mps 759 mmHg 68%
    16:00 +5°C° 0 mm 2 mps 759 mmHg 72%
    17:00 +4°C° 0 mm 2 mps 759 mmHg 74%
    18:00 +3°C° 0 mm 3 mps 759 mmHg 76%
    19:00 +2°C° 0 mm 3 mps 760 mmHg 78%
    20:00 +2°C° 0 mm 3 mps 760 mmHg 78%
    21:00 +2°C° 0 mm 3 mps 760 mmHg 78%
    22:00 +2°C° 0 mm 3 mps 760 mmHg 78%
    23:00 +2°C° 0 mm 3 mps 760 mmHg 78%

    Day after tomorrow, 25 October, Wednesday

    Time Temperature Precipitation Wind Pressure Humidity
    00:00 +2°C° 0 mm 3 mps 760 mmHg 77%
    01:00 +2°C° 0 mm 3 mps 760 mmHg 77%
    02:00 +2°C° 0 mm 3 mps 759 mmHg 78%
    03:00 +1°C° 0 mm 4 mps 759 mmHg 78%
    04:00 +1°C° 0 mm 4 mps 759 mmHg 79%
    05:00 +1°C° 0 mm 4 mps 759 mmHg 79%
    06:00 +1°C° 0 mm 5 mps 758 mmHg 78%
    07:00 +1°C° 0 mm 5 mps 758 mmHg 78%
    08:00 +2°C° 0.1 mm 6 mps 758 mmHg 75%
    09:00 +3°C° 0.1 mm 6 mps 757 mmHg 72%
    10:00 +3°C° 0.1 mm 7 mps 757 mmHg 68%
    11:00 +3°C° 1.1 mm 7 mps 756 mmHg 70%
    12:00 +3°C° 1.1 mm 7 mps 756 mmHg 72%
    13:00 +2°C° 1.1 mm 8 mps 755 mmHg 74%
    14:00 +2°C° 1.1 mm 8 mps 755 mmHg 78%
    15:00 +2°C° 1.1 mm 8 mps 754 mmHg 81%
    16:00 +2°C° 1.1 mm 8 mps 753 mmHg 84%
    17:00 +4°C° 0.6 mm 7 mps 753 mmHg 85%
    18:00 +4°C° 0.6 mm 7 mps 752 mmHg 87%
    19:00 +5°C° 0.6 mm 7 mps 752 mmHg 88%
    20:00 +7°C° 0.4 mm 6 mps 752 mmHg 90%
    21:00 +7°C° 0.4 mm 5 mps 752 mmHg 92%
    22:00 +8°C° 0.4 mm 4 mps 751 mmHg 94%
    23:00 +8°C° 0 mm 4 mps 752 mmHg 94%

    26 October, Thursday

    Time Temperature Precipitation Wind Pressure Humidity
    00:00 +8°C° 0 mm 4 mps 752 mmHg 95%
    01:00 +7°C° 0 mm 4 mps 752 mmHg 95%
    02:00 +7°C° 0 mm 4 mps 752 mmHg 95%
    03:00 +7°C° 0 mm 4 mps 752 mmHg 95%
    04:00 +7°C° 0 mm 4 mps 752 mmHg 96%
    05:00 +7°C° 0 mm 4 mps 752 mmHg 95%
    06:00 +7°C° 0 mm 4 mps 753 mmHg 94%
    07:00 +8°C° 0 mm 4 mps 753 mmHg 92%
    08:00 +8°C° 0 mm 5 mps 753 mmHg 89%
    09:00 +9°C° 0 mm 5 mps 753 mmHg 86%
    10:00 +9°C° 0 mm 6 mps 753 mmHg 83%
    11:00 +9°C° 0 mm 6 mps 752 mmHg 82%
    12:00 +10°C° 0 mm 6 mps 752 mmHg 80%
    13:00 +10°C° 0 mm 5 mps 752 mmHg 79%
    14:00 +9°C° 0 mm 5 mps 752 mmHg 80%
    15:00 +9°C° 0 mm 5 mps 752 mmHg 81%
    16:00 +9°C° 0 mm 5 mps 751 mmHg 82%
    17:00 +9°C° 0 mm 5 mps 751 mmHg 83%
    18:00 +8°C° 0 mm 5 mps 751 mmHg 84%
    19:00 +8°C° 0 mm 5 mps 751 mmHg 85%
    20:00 +8°C° 0 mm 5 mps 750 mmHg 87%
    21:00 +8°C° 0 mm 4 mps 750 mmHg 88%
    22:00 +7°C° 0 mm 4 mps 750 mmHg 90%
    23:00 +7°C° 0 mm 5 mps 749 mmHg 90%

    27 October, Friday

    Time Temperature Precipitation Wind Pressure Humidity
    00:00 +7°C° 0 mm 5 mps 749 mmHg 91%
    01:00 +8°C° 0 mm 5 mps 749 mmHg 91%
    02:00 +7°C° 0 mm 4 mps 748 mmHg 92%
    03:00 +7°C° 0 mm 4 mps 748 mmHg 92%
    04:00 +7°C° 0 mm 4 mps 747 mmHg 93%
    05:00 +7°C° 0.1 mm 4 mps 747 mmHg 91%
    06:00 +7°C° 0.1 mm 4 mps 747 mmHg 90%
    07:00 +7°C° 0.1 mm 4 mps 746 mmHg 89%
    08:00 +8°C° 0.1 mm 5 mps 746 mmHg 84%
    09:00 +9°C° 0.1 mm 5 mps 746 mmHg 80%
    10:00 +9°C° 0.1 mm 5 mps 746 mmHg 76%
    11:00 +9°C° 0.1 mm 5 mps 745 mmHg 74%
    12:00 +10°C° 0.1 mm 5 mps 745 mmHg 72%
    13:00 +10°C° 0.1 mm 5 mps 744 mmHg 70%
    14:00 +9°C° 0.3 mm 5 mps 744 mmHg 75%
    15:00 +8°C° 0.3 mm 4 mps 743 mmHg 80%
    16:00 +9°C° 0.3 mm 3 mps 743 mmHg 85%
    17:00 +8°C° 0.8 mm 3 mps 742 mmHg 87%
    18:00 +8°C° 0.8 mm 3 mps 742 mmHg 89%
    19:00 +8°C° 0.8 mm 3 mps 742 mmHg 91%
    20:00 +8°C° 0.5 mm 3 mps 742 mmHg 91%
    21:00 +8°C° 0.5 mm 3 mps 742 mmHg 92%
    22:00 +8°C° 0.5 mm 3 mps 742 mmHg 93%
    23:00 +7°C° 1.1 mm 4 mps 742 mmHg 92%

    28 October, Saturday

    Time Temperature Precipitation Wind Pressure Humidity
    00:00 +6°C° 1.1 mm 5 mps 742 mmHg 90%
    01:00 +6°C° 1.1 mm 5 mps 742 mmHg 89%
    02:00 +6°C° 0.3 mm 5 mps 742 mmHg 89%
    03:00 +5°C° 0.3 mm 5 mps 742 mmHg 89%
    04:00 +5°C° 0.3 mm 5 mps 743 mmHg 89%
    05:00 +5°C° 0 mm 5 mps 743 mmHg 88%
    06:00 +3°C° 0 mm 5 mps 743 mmHg 88%
    07:00 +3°C° 0 mm 5 mps 743 mmHg 87%
    08:00 +5°C° 0.1 mm 5 mps 743 mmHg 83%
    09:00 +6°C° 0.1 mm 5 mps 744 mmHg 79%
    10:00 +6°C° 0.1 mm 5 mps 744 mmHg 75%
    11:00 +7°C° 0.1 mm 5 mps 744 mmHg 72%
    12:00 +7°C° 0.1 mm 4 mps 743 mmHg 69%
    13:00 +7°C° 0.1 mm 4 mps 743 mmHg 67%
    14:00 +8°C° 0 mm 3 mps 743 mmHg 71%
    15:00 +7°C° 0 mm 3 mps 743 mmHg 75%
    16:00 +6°C° 0 mm 2 mps 743 mmHg 80%
    17:00 +6°C° 0 mm 2 mps 743 mmHg 83%
    18:00 +6°C° 0 mm 2 mps 743 mmHg 85%
    19:00 +5°C° 0 mm 2 mps 743 mmHg 88%
    20:00 +7°C° 0.3 mm 1 mps 743 mmHg 90%
    21:00 +7°C° 0.3 mm 1 mps 743 mmHg 91%
    22:00 +7°C° 0.3 mm 1 mps 743 mmHg 93%
    23:00 +6°C° 0.1 mm 1 mps 743 mmHg 93%

    29 October, Sunday

    Time Temperature Precipitation Wind Pressure Humidity
    00:00 +6°C° 0.1 mm 1 mps 743 mmHg 94%
    01:00 +6°C° 0.1 mm 1 mps 743 mmHg 95%
    02:00 +4°C° 0 mm 2 mps 743 mmHg 95%
    03:00 +4°C° 0 mm 2 mps 743 mmHg 95%
    04:00 +4°C° 0 mm 2 mps 744 mmHg 95%
    05:00 +3°C° 0 mm 3 mps 744 mmHg 95%
    06:00 +3°C° 0 mm 3 mps 745 mmHg 95%
    07:00 +3°C° 0 mm 3 mps 745 mmHg 95%
    08:00 +4°C° 0 mm 3 mps 745 mmHg 89%
    09:00 +5°C° 0 mm 4 mps 745 mmHg 82%
    10:00 +7°C° 0 mm 4 mps 746 mmHg 76%
    11:00 +7°C° 0 mm 4 mps 745 mmHg 74%
    12:00 +7°C° 0 mm 4 mps 745 mmHg 71%
    13:00 +7°C° 0 mm 4 mps 745 mmHg 68%
    14:00 +7°C° 0.1 mm 4 mps 745 mmHg 70%
    15:00 +7°C° 0.1 mm 3 mps 744 mmHg 73%
    16:00 +5°C° 0.1 mm 3 mps 744 mmHg 75%
    17:00 +5°C° 0 mm 3 mps 744 mmHg 77%
    18:00 +4°C° 0 mm 3 mps 743 mmHg 79%
    19:00 +4°C° 0 mm 3 mps 743 mmHg 81%
    20:00 +4°C° 0.1 mm 3 mps 742 mmHg 82%
    21:00 +4°C° 0.1 mm 4 mps 741 mmHg 84%
    22:00 +4°C° 0.1 mm 4 mps 741 mmHg 85%
    23:00 +5°C° 0.3 mm 5 mps 740 mmHg 87%
    Show more